SHIYAN-30 01

Last updated on Mon Oct 20 2025 00:02:07 GMT+0000 (Coordinated Universal Time)

1 65851U 25222A 25292.63572591 .00005750 00000+0 54604-3 0 9994 2 65851 34.9884 265.5478 0005039 150.9152 209.1835 14.92917149 3075
UTC large
Height (km)
Speed (km/s)
/
Latitude / Longitude
Inclination (degrees)
Orbital Period (minutes)
Azimuth
Elevation
Range (km)
Doppler Factor

Next 0 passes for location: London (51.5072 / 0.1276)

Sorry there are no passes over London.